Regional Weather Roundup
Issued by NWS

Home | Current Version | Previous Version | Graphics & Text | Print | Product List | Glossary Off
Versions: 1 2 3 4 5 6 7 8 9 10 11 12 13 14 15 16 17 18 19 20 21 22 23 24 25 26 27 28 29 30 31 32 33 34 35 36 37 38 39 40 41 42 43 44 45 46 47 48 49 50

000
ASUS43 KDMX 310407
RWRIA

WEATHER ROUNDUP FOR IOWA
NATIONAL WEATHER SERVICE DES MOINES IA
1100 PM CDT SUN AUG 30 2015

NOTE: "FAIR" INDICATES FEW OR NO CLOUDS BELOW 12,000 FEET WITH NO
SIGNIFICANT WEATHER AND/OR OBSTRUCTIONS TO VISIBILITY.

* - THESE STATIONS ARE NOT NWS STATIONS...THUS NOT UNDER NWS
QUALITY CONTROL.  THEY ALSO DO NOT REPORT WEATHER SUCH
AS PRECIPITATION OR FOG.

IAZ001>003-012>014-020>022-031>034-043>046-310500-
   NORTHWEST IOWA

CITY           SKY/WX    TMP DP  RH WIND       PRES   REMARKS
CARROLL *      FOG       59  59 100 S3        29.98F VSB 0
CHEROKEE *     CLEAR     64  64 100 S3        29.96S
DENISON *      CLOUDY    66  64  94 S3        29.96S
LE MARS *      PTCLDY    66  64  94 S6        29.95R
ORANGE CITY *  CLEAR     64  64 100 S8        29.95S FOG
SHELDON *      CLOUDY    64  64 100 S7        29.94S FOG
SPENCER        CLEAR     64  62  93 S6        29.96S FOG
STORM LAKE *   CLEAR     64  64 100 S8        29.97F FOG
$$

IAZ055>058-069>071-079>083-090>094-310500-
   SOUTHWEST IOWA

CITY           SKY/WX    TMP DP  RH WIND       PRES   REMARKS
ATLANTIC *     MOCLDY    63  63 100 CALM      29.99S FOG
AUDUBON *      FOG       59  57  94 CALM      30.00S VSB 0
CLARINDA *     PTCLDY    64  64 100 CALM      30.00S FOG
COUNCIL BLFS * CLEAR     68  66  94 S5        29.98S
CRESTON *      CLEAR     66  66 100 SE6       30.01S FOG
HARLAN  *      FOG       61 N/A N/A CALM      30.02S VSB 0
LAMONI         PTCLDY    73  68  84 SE3       30.00S
RED OAK *      FOG       64  64 100 CALM      29.99S VSB 3/4
SHENANDOAH *   CLEAR     66  66 100 E3        29.99R FOG
$$

IAZ047>049-059>061-072>074-084-310500-
   CENTRAL IOWA

CITY           SKY/WX    TMP DP  RH WIND       PRES   REMARKS
AMES           FOG       63  62  97 CALM      29.99S VSB 1/4
ANKENY *       CLEAR     66  66 100 CALM      29.99S FOG
CHARITON *     CLOUDY    68  66  94 SE6       30.01R
DES MOINES     PTCLDY    70  66  87 SE7       29.99R
GRINNELL*      CLEAR     64  63  94 SE5       30.01S
KNOXVILLE *    CLEAR     68  66  94 SE5       29.99S
MARSHALLTOWN   CLEAR     64  63  96 SE5       29.99S FOG
PELLA *        CLEAR     68  68 100 SE5       30.01S FOG
PERRY *          N/A     66  64  94 S3        29.99S FOG
$$

IAZ004>006-015-016-023>025-035-036-310500-
   NORTH CENTRAL IOWA

CITY           SKY/WX    TMP DP  RH WIND       PRES   REMARKS
ALGONA *       MOCLDY    64  64 100 S8        29.98S
CLARION *      CLEAR     63  61  94 SE7       29.99S FOG
ESTHERVILLE    CLEAR     63  63 100 S8        29.96S FOG
FORT DODGE *   CLEAR     63  59  88 CALM      29.99S
MASON CITY     CLEAR     60  60 100 S7        30.00S FOG
FOREST CITY *  CLEAR     61  61 100 S6        29.99S FOG
IOWA FALLS *     N/A     63  63 100 SE3       30.01S FOG
$$

IAZ007>011-017>019-026>030-037>042-050>054-066-310500-
   NORTHEAST IOWA

CITY           SKY/WX    TMP DP  RH WIND       PRES   REMARKS
CEDAR RAPIDS   CLEAR     64  64 100 E5        30.01S
CHARLES CITY * CLEAR     63  63 100 S5        30.00F
CLINTON *      CLEAR     63  61  94 E3        30.05S
DECORAH *      CLOUDY    63  63 100 S3        30.00S
DUBUQUE        CLEAR     62  60  93 CALM      30.03F
MONTICELLO *   FOG       59  59 100 CALM      30.02S VSB 1/4
OELWEIN *      CLEAR     61  61 100 S5        30.02S FOG
WATERLOO       CLEAR     61  60  97 CALM      30.00R FOG
$$

IAZ064-065-067-068-078-310500-
   EAST CENTRAL IOWA

CITY           SKY/WX    TMP DP  RH WIND       PRES   REMARKS
DAVENPORT      CLEAR     65  62  90 E6        30.03S
IOWA CITY      PTCLDY    64  63  96 CALM      30.02F FOG
MT. PLEASANT * CLEAR     68  64  88 E3        30.01S FOG
MUSCATINE *    CLEAR     64  64 100 CALM      30.02S FOG
QUAD CITIES    CLEAR     65  63  93 CALM      30.02S
$$

IAZ062-063-075>077-085>089-095>099-310500-
   SOUTHEAST IOWA

CITY           SKY/WX    TMP DP  RH WIND       PRES   REMARKS
BURLINGTON     CLEAR     71  68  90 E3        30.01S
FAIRFIELD *    CLEAR     66  64  94 E5        30.01S
FORT MADISON * CLEAR     70  70 100 SE5       30.01F
KEOKUK *       CLEAR     72  68  88 SE7       30.00S
OSKALOOSA *      N/A     66  64  94 E3        30.02R FOG
CENTERVILLE *  CLEAR     66  66 100 E5        30.03R
OTTUMWA        CLEAR     66  66 100 E5        29.99S
WASHINGTON *     N/A    N/A N/A N/A MISG        N/A
$$

ABBREVIATIONS USED IN REMARKS
   TC - TEMPERATURES IN CELSIUS
  WCI - WIND CHILL INDEX
   HX - HEAT INDEX
  VSB - VISIBILITY
$$



USA.gov is the U.S. government's official web portal to all federal, state and local government web resources and services.